Powrót do katalogu

STARLINK-36873

AktywnyŁącznośćVLEO
NORAD 67948·PAYLOAD·🇺🇸 United States

Wystrzelony Feb 24, 2026 z Vandenberg Space Force Base

Loading…

Następne Przeloty (najbliższe 24 godziny)

TLE

ŚwieżeSource: CelesTrak SupGP

Epoka: Sep 15, 2026, 03:10 UTC

1 67948C 26037S   26258.13243056 -.00035366  00000+0 -12811-2 0  2586
2 67948  43.0028 200.4648 0001254 271.6678 245.6558 15.27591324    11

Śledź STARLINK-36873 w czasie rzeczywistym z AllMySat

Download on the App Store